This is the latest recevied weather packets stored in our database for station/object VK4AB-13. If no packets are shown the sender has not sent any weather packets the latest 10 day(s).
| Time | Temp. | Humidity | Pressure | Rain* | Wind** | Luminosity | Snow |
|---|---|---|---|---|---|---|---|
| 1777795431 | 22.78° C | 71% | 1018.4 hPa | 0 mm | - | 0 W/m² | - |
| 1777795131 | 22.78° C | 71% | 1018.4 hPa | 0 mm | - | 0 W/m² | - |
| 1777794831 | 23.33° C | 70% | 1018.5 hPa | 0 mm | - | 0 W/m² | - |
| 1777794531 | 23.33° C | 70% | 1018.3 hPa | 0 mm | - | 0 W/m² | - |
| 1777794231 | 23.33° C | 69% | 1018.3 hPa | 0 mm | - | 0 W/m² | - |
| 1777793931 | 23.33° C | 68% | 1018.2 hPa | 0 mm | - | 0 W/m² | - |
| 1777793631 | 23.89° C | 67% | 1018.2 hPa | 0 mm | - | 0 W/m² | - |
| 1777793372 | 23.89° C | 67% | 1018.2 hPa | 0 mm | - | 0 W/m² | - |
| 1777793331 | 23.89° C | 67% | 1018.2 hPa | 0 mm | - | 0 W/m² | - |
| 1777793132 | 23.89° C | 67% | 1018.1 hPa | 0 mm | - | 0 W/m² | - |
| 1777793031 | 23.89° C | 67% | 1018.1 hPa | 0 mm | - | 0 W/m² | - |
| 1777792731 | 23.89° C | 66% | 1018 hPa | 0 mm | - | 0 W/m² | - |
| 1777792431 | 24.44° C | 65% | 1017.9 hPa | 0 mm | - | 5 W/m² | - |
| 1777792131 | 24.44° C | 65% | 1018 hPa | 0 mm | - | 9 W/m² | - |
| 1777791831 | 24.44° C | 64% | 1017.9 hPa | 0 mm | - | 12 W/m² | - |
| 1777791531 | 25° C | 64% | 1017.9 hPa | 0 mm | - | 18 W/m² | - |
| 1777791231 | 25° C | 63% | 1017.9 hPa | 0 mm | - | 25 W/m² | - |
| 1777791037 | 25° C | 62% | 1017.9 hPa | 0 mm | - | 42 W/m² | - |
| 1777790931 | 25° C | 62% | 1017.9 hPa | 0 mm | - | 42 W/m² | - |
| 1777790631 | 25° C | 61% | 1017.9 hPa | 0 mm | - | 54 W/m² | - |
| 1777790331 | 25.56° C | 60% | 1017.9 hPa | 0 mm | - | 67 W/m² | - |
| 1777790031 | 25.56° C | 60% | 1017.9 hPa | 0 mm | - | 88 W/m² | - |
| 1777789731 | 25.56° C | 60% | 1017.8 hPa | 0 mm | - | 111 W/m² | - |
| 1777789431 | 25.56° C | 60% | 1017.7 hPa | 0 mm | - | 142 W/m² | - |
| 1777789131 | 25.56° C | 60% | 1017.8 hPa | 0 mm | - | 174 W/m² | - |
* Rain latest hour (hover to see other rain measurements)
** Current wind speed in m/s (hover to see current wind gust speed)